TimePDT,TemperatureF,Dew PointF,Humidity,Sea Level PressureIn,VisibilityMPH,Wind Direction,Wind SpeedMPH,Gust SpeedMPH,PrecipitationIn,Events,Conditions,WindDirDegrees,DateUTC
12:54 AM,55.0,51.1,86,29.95,10.0,Calm,Calm,-,N/A,,Clear,0,2013-05-07 07:54:00
1:54 AM,54.0,50.0,86,29.95,10.0,WNW,3.5,-,N/A,,Mostly Cloudy,290,2013-05-07 08:54:00
3:54 AM,55.0,51.1,86,29.96,10.0,Calm,Calm,-,N/A,,Overcast,0,2013-05-07 10:54:00
4:54 AM,55.0,51.1,86,29.96,10.0,Calm,Calm,-,N/A,,Overcast,0,2013-05-07 11:54:00
5:54 AM,52.0,50.0,93,29.96,9.0,Calm,Calm,-,N/A,,Mostly Cloudy,0,2013-05-07 12:54:00
6:54 AM,53.1,51.1,93,29.97,10.0,NW,3.5,-,N/A,,Mostly Cloudy,310,2013-05-07 13:54:00
7:54 AM,59.0,53.1,81,29.99,10.0,NNW,3.5,-,N/A,,Overcast,340,2013-05-07 14:54:00
8:54 AM,61.0,52.0,72,30.00,10.0,West,6.9,-,N/A,,Mostly Cloudy,270,2013-05-07 15:54:00
9:54 AM,64.0,53.1,67,30.00,10.0,West,8.1,-,N/A,,Overcast,270,2013-05-07 16:54:00
10:54 AM,66.0,53.1,63,30.01,10.0,SW,6.9,-,N/A,,Mostly Cloudy,230,2013-05-07 17:54:00
11:54 AM,64.9,54.0,68,30.01,10.0,South,9.2,-,N/A,,Scattered Clouds,190,2013-05-07 18:54:00
12:54 PM,71.1,54.0,55,29.99,10.0,SSW,11.5,-,N/A,,Clear,210,2013-05-07 19:54:00
1:54 PM,70.0,53.1,55,29.99,10.0,SSW,15.0,-,N/A,,Scattered Clouds,200,2013-05-07 20:54:00
2:54 PM,72.0,52.0,49,29.98,10.0,SSW,13.8,-,N/A,,Clear,200,2013-05-07 21:54:00
3:54 PM,73.0,51.1,46,29.96,10.0,SSW,13.8,-,N/A,,Scattered Clouds,200,2013-05-07 22:54:00
4:54 PM,72.0,51.1,48,29.95,10.0,SSW,12.7,-,N/A,,Clear,200,2013-05-07 23:54:00
5:54 PM,71.1,48.0,44,29.95,10.0,West,15.0,-,N/A,,Clear,280,2013-05-08 00:54:00
6:54 PM,66.0,51.1,59,29.96,10.0,West,18.4,-,N/A,,Clear,280,2013-05-08 01:54:00
7:54 PM,61.0,51.1,70,29.98,10.0,West,13.8,-,N/A,,Mostly Cloudy,280,2013-05-08 02:54:00
8:54 PM,57.9,51.1,78,29.99,10.0,WNW,8.1,-,N/A,,Overcast,290,2013-05-08 03:54:00
9:54 PM,55.9,51.1,84,30.01,10.0,SSW,4.6,-,N/A,,Overcast,210,2013-05-08 04:54:00
10:54 PM,54.0,51.1,90,30.02,10.0,WSW,9.2,-,N/A,,Clear,240,2013-05-08 05:54:00
11:54 PM,53.1,50.0,89,30.02,10.0,SW,8.1,-,N/A,,Clear,230,2013-05-08 06:54:00